SCP
0 0 0 0 0 0 0 0 0 0 0 0 0 0 0 0 0 0 0 0 0 0 0 0 0 0 0 0 0 0 0 0 0 0 0 0 0 0 0 0 0 0 0
0 0 0 0 0 0 0 0 0 0 0 0 0 0 0 0 0 0 0 0 0 0 0 0 0 0 0 0 0 0 0 0 0 0 0 0 0 0 0 0 0 0 0
0 0 0 0 0 0 0 0 0 0 0 0 0 0 0 0 0 0 0 0 0 0 0 0 0 0 0 0 0 0 0 0 0 0 0 0 0 0 0 0 0 0 0
0 0 0 0 0 0 0 0 0 0 0 0 0 0 0 0 0 0 0 0 0 0 0 0 0 0 0 0 0 0 0 0 0 0 0 0 0 0 0 0 0 0 0
0 0 0 0 0 0 0 0 0 0 0 0 0 0 0 0 0 0 0 0 0 0 0 0 0 0 0 0 0 0 0 0 0 0 0 0 0 0 0 0 0 0 0
0 0 0 0 0 0 0 0 0 0 0 0 0 0 0 0 0 0 0 0 0 0 0 0 0 0 0 0 0 0 0 0 0 0 0 0 0 0 0 0 0 0 0
0 0 0 0 0 0 0 0 0 0 0 0 0 0 0 0 0 0 0 0 0 0 0 0 0 0 0 0 0 0 0 0 0 0 0 0 0 0 0 0 0 0 0
0 0 0 0 0 0 0 0 0 0 0 0 0 0 0 0 0 0 0 0 0 0 0 0 0 0 0 0 0 0 0 0 0 0 0 0 0 0 0 0 0 0 0
0 0 0 0 0 0 0 0 0 0 0 0 0 0 0 0 0 0 0 0 0 0 0 0 0 0 0 0 0 0 0 0 0 0 0 0 0 0 0 0 0 0 0
0 0 0 0 0 0 0 0 0 0 0 0 0 0 0 0 0 0 0 0 0 0 0 0 0 0 0 0 0 0 0 0 0 0 0 0 0 0 0 0 0 0 0
0 0 0 0 0 0 0 0 0 0 0 0 0 0 0 0 0 0 0 0 0 0 0 0 0 0 0 0 0 0 0 0 0 0 0 0 0 0 0 0 0 0 0
0 0 0 0 0 0 0 0 0 0 0 0 0 0 0 0 0 0 0 0 0 0 0 0 0 0 0 0 0 0 0 0 0 0 0 0 0 0 0 0 0 0 0
0 0 0 0 0 0 0 0 0 0 0 0 0 0 0 0 0 0 0 0 0 0 0 0 0 0 0 0 0 0 0 0 0 0 0 0 0 0 0 0 0 0 0
0 0 0 0 0 0 0 0 0 0 0 0 0 0 0 0 0 0 0 0 0 0 0 0 0 0 0 0 0 0 0 0 0 0 0 0 0 0 0 0 0 0 0
0 0 0 0 0 0 0 0 0 0 0 0 0 0 0 0 0 0 0 0 0 0 0 0 0 0 0 0 0 0 0 0 0 0 0 0 0 0 0 0 0 0 0
0 0 0 0 0 0 0 0 0 0 0 0 0 0 0 0 0 0 0 0 0 0 0 0 0 0 0 0 0 0 0 0 0 0 0 0 0 0 0 0 0 0 0
0 0 0 0 0 0 0 0 0 0 0 0 0 0 0 0 0 0 0 0 0 0 0 0 0 0 0 0 0 0 0 0 0 0 0 0 0 0 0 0 0 0 0
0 0 0 0 0 0 0 0 0 0 0 0 0 0 0 0 0 0 0 0 0 0 0 0 0 0 0 0 0 0 0 0 0 0 0 0 0 0 0 0 0 0 0
0 0 0 0 0 0 0 0 0 0 0 0 0 0 0 0 0 0 0 0 0 0 0 0 0 0 0 0 0 0 0 0 0 0 0 0 0 0 0 0 0 0 0
0 0 0 0 0 0 0 0 0 0 0 0 0 0 0 0 0 0 0 0 0 0 0 0 0 0 0 0 0 0 0 0 0 0 0 0 0 0 0 0 0 0 0
0 0 0 0 0 0 0 0 0 0 0 0 0 0 0 0 0 0 0 0 0 0 0 0 0 0 0 0 0 0 0 0 0 0 0 0 0 0 0 0 0 0 0
0 0 0 0 0 0 0 0 0 0 0 0 0 0 0 0 0 0 0 0 0 0 0 0 0 0 0 0 0 0 0 0 0 0 0 0 0 0 0 0 0 0 0
0 0 0 0 0 0 0 0 0 0 0 0 0 0 0 0 0 0 0 0 0 0 0 0 0 0 0 0 0 0 0 0 0 0 0 0 0 0 0 0 0 0 0
0 0 0 0 0 0 0 0 0 0 0 0 0 0 0 0 0 0 0 0 0 0 0 0 0 0 0 -0 0 0 0 0 0 0 0 0 0 0 0 0 0 0 0
0 0 0 0 0 0 0 0 0 0 0 0 0 0 0 0 0 0 0 0 0 0 0 0 0 0 -0 0 0 0 0 0 0 0 0 0 0 0 0 0 0 0 0
0 0 0 0 0 0 0 0 0 0 0 0 0 0 0 0 0 0 0 0 0 0 0 0 0 0 0 0 0 0 0 0 0 0 0 0 0 0 0 0 0 0 0
Wind_Speed_500mb
69 67 67 66 65 63 60 55 51 48 48 48 47 46 45 45 44 43 42 41 39 37 34 32 31 29 28 26 25 24 22 20 20 20 18 19 21 22 25 28 28 31 34
68 68 68 68 68 67 65 59 55 52 50 49 49 48 48 47 46 44 43 41 39 37 34 33 31 30 29 27 27 26 25 23 22 21 21 23 24 27 29 31 33 35 37
68 69 70 71 73 73 69 64 60 56 54 52 53 52 50 49 48 46 44 42 39 37 36 33 31 30 29 28 28 27 26 25 24 25 26 25 27 28 30 30 32 32 36
63 68 72 73 73 74 71 68 65 61 58 56 55 53 52 51 49 47 45 43 41 38 36 34 33 30 29 29 28 27 27 26 25 28 28 29 32 33 36 39 36 35 35
60 67 73 71 72 74 75 74 70 68 62 58 57 55 54 54 52 49 46 43 41 39 37 36 34 32 31 31 29 27 26 25 25 28 29 30 33 36 38 43 47 48 43
59 67 69 71 73 76 77 78 75 72 66 63 62 59 56 57 53 50 46 43 41 39 37 35 34 33 31 31 30 28 26 25 25 27 28 31 32 36 39 42 48 52 54
58 61 67 70 73 77 78 78 80 79 71 69 66 62 60 58 52 50 47 44 42 39 37 35 33 32 32 31 29 28 28 27 26 29 29 31 34 36 39 41 43 49 51
61 62 64 69 73 76 78 82 83 81 76 72 68 64 61 57 53 51 48 45 44 40 38 35 34 33 31 29 29 28 28 28 28 30 30 30 34 36 39 42 45 52 52
62 66 69 70 71 74 79 81 83 82 79 75 69 65 62 58 55 53 50 48 45 40 39 38 34 31 29 29 29 29 29 28 30 32 31 31 32 34 38 42 40 52 59
60 69 72 73 71 70 73 76 80 80 78 74 70 66 61 56 54 52 51 49 46 44 40 35 31 29 29 31 30 29 30 27 31 33 33 33 35 35 37 43 47 50 52
60 66 71 72 70 66 67 70 74 78 78 75 70 65 60 56 54 52 50 49 45 39 36 30 28 29 31 31 31 32 31 29 30 34 34 35 35 38 40 43 44 46 49
55 60 64 65 65 63 64 68 71 75 78 76 71 67 62 58 55 53 51 44 40 37 29 32 34 29 28 29 36 32 29 28 29 33 36 37 38 37 35 36 38 38 41
49 51 54 55 55 55 60 67 70 73 77 75 71 66 62 59 56 55 49 43 36 31 36 36 33 33 34 33 30 25 21 29 33 34 36 35 36 36 33 32 32 33 31
44 43 44 47 47 50 58 60 64 69 73 70 66 64 62 59 59 57 54 51 46 40 41 38 40 35 27 27 21 21 31 31 29 27 25 27 28 24 24 29 29 31 32
38 37 37 41 43 47 53 55 57 57 59 59 61 59 60 65 65 56 49 54 52 46 41 36 29 23 21 16 25 30 24 20 20 19 19 19 19 18 17 19 23 27 30
31 33 34 37 42 45 47 49 47 46 48 51 54 59 59 50 48 54 58 47 39 37 28 20 18 19 22 28 24 20 15 12 13 12 13 10 8 10 10 13 17 22 28
27 29 32 34 37 41 45 47 50 52 52 55 52 46 46 44 48 44 36 32 32 28 22 20 24 28 26 23 15 11 12 12 11 8 6 3 3 6 10 13 17 21 22
22 24 26 30 33 39 46 51 51 50 45 34 31 31 32 33 36 40 42 35 29 28 32 29 26 22 13 10 12 15 13 12 8 5 3 3 4 6 8 12 16 21 24
20 22 22 24 30 36 40 40 36 34 34 35 35 38 42 43 38 33 29 27 31 31 28 23 15 10 7 8 11 13 10 7 5 3 2 1 3 6 10 14 17 20 24
16 16 15 16 20 23 27 29 31 32 36 45 51 48 42 40 38 36 35 32 31 27 22 17 14 9 6 3 2 1 3 4 4 5 3 1 4 8 12 17 21 22 21
11 5 1 8 12 18 22 27 33 41 45 40 38 37 32 31 31 30 29 29 25 23 21 17 16 14 11 9 9 7 7 6 6 7 7 5 7 11 15 17 17 17 18
10 9 12 15 20 25 31 35 36 35 38 38 34 35 33 32 30 29 28 27 26 24 22 21 19 15 12 9 8 8 9 7 5 4 5 10 13 16 18 20 20 22 24
20 22 25 27 29 32 36 37 35 31 27 28 28 24 24 27 28 28 28 27 26 25 24 22 19 15 12 10 8 5 2 4 8 13 16 19 22 23 25 26 28 28 28
15 16 21 21 20 20 21 22 22 25 25 23 18 23 27 28 29 29 27 26 25 24 23 21 17 13 9 5 1 3 7 12 18 23 28 31 33 36 39 39 38 40 37
14 8 8 5 10 12 14 17 16 14 18 23 28 28 28 28 28 28 27 26 26 24 21 16 12 9 7 5 6 9 13 18 22 28 34 39 43 45 49 51 50 48 48
16 13 9 12 16 19 23 25 25 29 27 26 27 27 28 29 28 27 27 27 24 19 16 13 10 9 8 9 11 14 18 22 28 34 42 48 52 54 56 59 59 58 57
Wind_Direction_500mb
242 245 244 242 240 239 239 239 240 242 243 244 245 244 243 242 240 239 238 238 240 241 241 242 242 243 244 245 247 250 254 261 271 281 283 282 287 300 311 318 324 330 337
247 247 247 245 242 240 239 239 239 242 243 243 243 243 242 240 240 239 239 241 241 243 244 244 245 245 246 248 249 252 257 262 272 284 292 296 296 298 301 308 316 323 327
248 249 248 246 242 240 240 238 239 240 240 240 240 241 241 240 240 239 238 239 240 242 243 244 245 246 248 250 253 256 260 264 272 281 289 295 300 300 298 301 306 309 314
251 251 250 248 246 244 242 240 240 241 240 240 240 240 241 240 239 238 238 239 239 240 242 243 244 246 248 251 254 258 263 270 274 279 285 293 300 305 308 309 306 307 308
254 252 251 250 248 245 242 240 240 240 240 241 240 239 238 238 237 237 239 240 241 241 241 243 244 245 247 251 255 258 266 273 279 284 291 296 300 304 307 312 313 313 316
260 257 254 251 247 244 242 240 240 240 240 240 239 238 238 238 238 237 237 238 239 240 241 243 245 246 248 250 253 257 263 270 276 283 290 296 300 306 309 312 314 315 322
269 263 257 252 249 246 244 241 240 239 239 239 239 237 237 237 236 237 236 236 236 237 239 241 244 247 248 252 255 259 265 269 275 281 288 295 299 303 307 311 313 314 315
272 268 262 255 250 248 244 241 239 238 239 240 240 239 238 236 234 234 233 233 232 233 235 238 240 243 246 250 256 262 267 273 278 282 287 290 298 303 308 311 313 311 312
271 270 266 261 254 250 246 243 240 238 238 239 240 239 237 235 232 231 229 230 230 230 232 234 237 241 246 252 257 263 269 275 277 280 287 293 297 302 306 306 309 309 312
280 270 267 265 260 255 252 247 243 239 240 239 239 238 237 235 232 231 229 228 226 227 229 232 237 239 245 252 257 264 268 273 276 284 292 296 299 302 302 301 306 309 313
285 278 271 268 264 259 253 247 243 239 238 237 237 236 235 231 227 227 228 229 228 227 227 229 235 238 242 250 260 263 268 269 280 288 291 296 299 298 298 299 301 303 305
285 282 277 271 265 258 251 246 241 237 236 235 233 230 228 225 222 224 226 226 227 222 221 232 235 235 242 250 257 262 271 285 292 289 295 296 295 296 296 298 304 308 311
286 284 283 276 266 259 251 246 240 235 233 232 231 228 224 221 219 220 221 219 214 214 222 226 229 235 239 249 254 264 285 283 283 289 291 294 296 301 307 317 319 322 327
289 286 284 273 264 256 247 243 240 236 231 229 229 226 223 219 219 216 212 205 218 210 215 221 226 234 243 246 256 277 272 274 280 284 289 296 310 327 326 325 331 336 343
294 290 279 268 259 252 248 246 242 237 237 236 232 229 224 219 218 217 211 224 214 214 217 223 223 230 241 251 260 259 260 266 275 286 302 320 333 333 331 336 343 347 353
297 290 278 267 259 249 240 235 228 227 230 228 227 228 223 221 220 224 233 223 211 210 198 196 202 218 238 248 248 248 258 276 291 305 324 342 357 360 14 358 353 350 352
299 292 281 269 255 243 231 224 218 212 217 224 225 221 229 231 227 217 205 193 176 171 177 198 221 230 227 226 230 249 253 279 299 324 359 31 351 344 341 344 350 353 4
300 286 275 266 247 232 222 218 215 212 211 213 212 213 209 200 185 170 167 163 163 184 207 211 204 202 216 245 257 263 276 274 291 284 315 342 356 337 333 341 350 355 359
316 300 281 260 241 229 225 222 221 214 207 195 176 166 161 159 157 156 161 180 195 193 187 179 176 193 225 265 280 288 289 266 265 284 136 77 344 347 345 353 352 345 345
326 319 304 268 243 229 221 213 201 191 182 173 164 158 155 157 154 170 185 185 180 179 172 171 172 168 166 189 239 230 140 131 159 168 171 260 338 341 345 350 346 336 335
8 11 303 218 202 191 186 183 179 172 163 156 149 144 151 173 180 175 173 173 169 169 171 168 160 152 146 137 124 123 130 124 96 75 58 25 347 333 335 333 336 342 338
67 101 130 147 156 158 155 151 149 145 139 137 147 170 171 167 167 171 171 169 170 171 173 173 170 166 160 151 142 133 116 104 73 27 329 318 318 317 315 314 314 312 310
81 99 110 114 118 126 130 130 130 132 148 165 164 159 165 175 176 175 177 177 177 177 178 178 175 169 167 165 141 117 95 304 296 298 300 304 307 309 309 309 305 301 299
96 120 118 107 103 113 124 135 154 166 166 156 164 191 188 183 180 181 182 184 185 185 182 183 178 177 168 162 121 301 295 295 301 303 305 309 312 309 303 299 298 299 300
32 77 92 95 140 163 185 173 156 171 186 203 203 195 193 192 191 192 192 191 192 191 190 190 187 188 195 215 248 272 282 289 296 301 302 302 299 296 295 294 294 292 292
292 251 216 204 202 204 206 215 224 226 219 209 205 204 204 203 200 198 196 194 192 188 188 192 200 216 236 253 266 280 292 301 304 302 299 298 297 297 295 294 293 292 290
Wind_Speed_850mb
69 67 67 66 65 63 60 55 51 48 48 48 47 46 45 45 44 43 42 41 39 37 34 32 31 29 28 26 25 24 22 20 20 20 18 19 21 22 25 28 28 31 34
68 68 68 68 68 67 65 59 55 52 50 49 49 48 48 47 46 44 43 41 39 37 34 33 31 30 29 27 27 26 25 23 22 21 21 23 24 27 29 31 33 35 37
68 69 70 71 73 73 69 64 60 56 54 52 53 52 50 49 48 46 44 42 39 37 36 33 31 30 29 28 28 27 26 25 24 25 26 25 27 28 30 30 32 32 36
63 68 72 73 73 74 71 68 65 61 58 56 55 53 52 51 49 47 45 43 41 38 36 34 33 30 29 29 28 27 27 26 25 28 28 29 32 33 36 39 36 35 35
60 67 73 71 72 74 75 74 70 68 62 58 57 55 54 54 52 49 46 43 41 39 37 36 34 32 31 31 29 27 26 25 25 28 29 30 33 36 38 43 47 48 43
59 67 69 71 73 76 77 78 75 72 66 63 62 59 56 57 53 50 46 43 41 39 37 35 34 33 31 31 30 28 26 25 25 27 28 31 32 36 39 42 48 52 54
58 61 67 70 73 77 78 78 80 79 71 69 66 62 60 58 52 50 47 44 42 39 37 35 33 32 32 31 29 28 28 27 26 29 29 31 34 36 39 41 43 49 51
61 62 64 69 73 76 78 82 83 81 76 72 68 64 61 57 53 51 48 45 44 40 38 35 34 33 31 29 29 28 28 28 28 30 30 30 34 36 39 42 45 52 52
62 66 69 70 71 74 79 81 83 82 79 75 69 65 62 58 55 53 50 48 45 40 39 38 34 31 29 29 29 29 29 28 30 32 31 31 32 34 38 42 40 52 59
60 69 72 73 71 70 73 76 80 80 78 74 70 66 61 56 54 52 51 49 46 44 40 35 31 29 29 31 30 29 30 27 31 33 33 33 35 35 37 43 47 50 52
60 66 71 72 70 66 67 70 74 78 78 75 70 65 60 56 54 52 50 49 45 39 36 30 28 29 31 31 31 32 31 29 30 34 34 35 35 38 40 43 44 46 49
55 60 64 65 65 63 64 68 71 75 78 76 71 67 62 58 55 53 51 44 40 37 29 32 34 29 28 29 36 32 29 28 29 33 36 37 38 37 35 36 38 38 41
49 51 54 55 55 55 60 67 70 73 77 75 71 66 62 59 56 55 49 43 36 31 36 36 33 33 34 33 30 25 21 29 33 34 36 35 36 36 33 32 32 33 31
44 43 44 47 47 50 58 60 64 69 73 70 66 64 62 59 59 57 54 51 46 40 41 38 40 35 27 27 21 21 31 31 29 27 25 27 28 24 24 29 29 31 32
38 37 37 41 43 47 53 55 57 57 59 59 61 59 60 65 65 56 49 54 52 46 41 36 29 23 21 16 25 30 24 20 20 19 19 19 19 18 17 19 23 27 30
31 33 34 37 42 45 47 49 47 46 48 51 54 59 59 50 48 54 58 47 39 37 28 20 18 19 22 28 24 20 15 12 13 12 13 10 8 10 10 13 17 22 28
27 29 32 34 37 41 45 47 50 52 52 55 52 46 46 44 48 44 36 32 32 28 22 20 24 28 26 23 15 11 12 12 11 8 6 3 3 6 10 13 17 21 22
22 24 26 30 33 39 46 51 51 50 45 34 31 31 32 33 36 40 42 35 29 28 32 29 26 22 13 10 12 15 13 12 8 5 3 3 4 6 8 12 16 21 24
20 22 22 24 30 36 40 40 36 34 34 35 35 38 42 43 38 33 29 27 31 31 28 23 15 10 7 8 11 13 10 7 5 3 2 1 3 6 10 14 17 20 24
16 16 15 16 20 23 27 29 31 32 36 45 51 48 42 40 38 36 35 32 31 27 22 17 14 9 6 3 2 1 3 4 4 5 3 1 4 8 12 17 21 22 21
11 5 1 8 12 18 22 27 33 41 45 40 38 37 32 31 31 30 29 29 25 23 21 17 16 14 11 9 9 7 7 6 6 7 7 5 7 11 15 17 17 17 18
10 9 12 15 20 25 31 35 36 35 38 38 34 35 33 32 30 29 28 27 26 24 22 21 19 15 12 9 8 8 9 7 5 4 5 10 13 16 18 20 20 22 24
20 22 25 27 29 32 36 37 35 31 27 28 28 24 24 27 28 28 28 27 26 25 24 22 19 15 12 10 8 5 2 4 8 13 16 19 22 23 25 26 28 28 28
15 16 21 21 20 20 21 22 22 25 25 23 18 23 27 28 29 29 27 26 25 24 23 21 17 13 9 5 1 3 7 12 18 23 28 31 33 36 39 39 38 40 37
14 8 8 5 10 12 14 17 16 14 18 23 28 28 28 28 28 28 27 26 26 24 21 16 12 9 7 5 6 9 13 18 22 28 34 39 43 45 49 51 50 48 48
16 13 9 12 16 19 23 25 25 29 27 26 27 27 28 29 28 27 27 27 24 19 16 13 10 9 8 9 11 14 18 22 28 34 42 48 52 54 56 59 59 58 57
Wind_Direction_850mb
242 245 244 242 240 239 239 239 240 242 243 244 245 244 243 242 240 239 238 238 240 241 241 242 242 243 244 245 247 250 254 261 271 281 283 282 287 300 311 318 324 330 337
247 247 247 245 242 240 239 239 239 242 243 243 243 243 242 240 240 239 239 241 241 243 244 244 245 245 246 248 249 252 257 262 272 284 292 296 296 298 301 308 316 323 327
248 249 248 246 242 240 240 238 239 240 240 240 240 241 241 240 240 239 238 239 240 242 243 244 245 246 248 250 253 256 260 264 272 281 289 295 300 300 298 301 306 309 314
251 251 250 248 246 244 242 240 240 241 240 240 240 240 241 240 239 238 238 239 239 240 242 243 244 246 248 251 254 258 263 270 274 279 285 293 300 305 308 309 306 307 308
254 252 251 250 248 245 242 240 240 240 240 241 240 239 238 238 237 237 239 240 241 241 241 243 244 245 247 251 255 258 266 273 279 284 291 296 300 304 307 312 313 313 316
260 257 254 251 247 244 242 240 240 240 240 240 239 238 238 238 238 237 237 238 239 240 241 243 245 246 248 250 253 257 263 270 276 283 290 296 300 306 309 312 314 315 322
269 263 257 252 249 246 244 241 240 239 239 239 239 237 237 237 236 237 236 236 236 237 239 241 244 247 248 252 255 259 265 269 275 281 288 295 299 303 307 311 313 314 315
272 268 262 255 250 248 244 241 239 238 239 240 240 239 238 236 234 234 233 233 232 233 235 238 240 243 246 250 256 262 267 273 278 282 287 290 298 303 308 311 313 311 312
271 270 266 261 254 250 246 243 240 238 238 239 240 239 237 235 232 231 229 230 230 230 232 234 237 241 246 252 257 263 269 275 277 280 287 293 297 302 306 306 309 309 312
280 270 267 265 260 255 252 247 243 239 240 239 239 238 237 235 232 231 229 228 226 227 229 232 237 239 245 252 257 264 268 273 276 284 292 296 299 302 302 301 306 309 313
285 278 271 268 264 259 253 247 243 239 238 237 237 236 235 231 227 227 228 229 228 227 227 229 235 238 242 250 260 263 268 269 280 288 291 296 299 298 298 299 301 303 305
285 282 277 271 265 258 251 246 241 237 236 235 233 230 228 225 222 224 226 226 227 222 221 232 235 235 242 250 257 262 271 285 292 289 295 296 295 296 296 298 304 308 311
286 284 283 276 266 259 251 246 240 235 233 232 231 228 224 221 219 220 221 219 214 214 222 226 229 235 239 249 254 264 285 283 283 289 291 294 296 301 307 317 319 322 327
289 286 284 273 264 256 247 243 240 236 231 229 229 226 223 219 219 216 212 205 218 210 215 221 226 234 243 246 256 277 272 274 280 284 289 296 310 327 326 325 331 336 343
294 290 279 268 259 252 248 246 242 237 237 236 232 229 224 219 218 217 211 224 214 214 217 223 223 230 241 251 260 259 260 266 275 286 302 320 333 333 331 336 343 347 353
297 290 278 267 259 249 240 235 228 227 230 228 227 228 223 221 220 224 233 223 211 210 198 196 202 218 238 248 248 248 258 276 291 305 324 342 357 360 14 358 353 350 352
299 292 281 269 255 243 231 224 218 212 217 224 225 221 229 231 227 217 205 193 176 171 177 198 221 230 227 226 230 249 253 279 299 324 359 31 351 344 341 344 350 353 4
300 286 275 266 247 232 222 218 215 212 211 213 212 213 209 200 185 170 167 163 163 184 207 211 204 202 216 245 257 263 276 274 291 284 315 342 356 337 333 341 350 355 359
316 300 281 260 241 229 225 222 221 214 207 195 176 166 161 159 157 156 161 180 195 193 187 179 176 193 225 265 280 288 289 266 265 284 136 77 344 347 345 353 352 345 345
326 319 304 268 243 229 221 213 201 191 182 173 164 158 155 157 154 170 185 185 180 179 172 171 172 168 166 189 239 230 140 131 159 168 171 260 338 341 345 350 346 336 335
8 11 303 218 202 191 186 183 179 172 163 156 149 144 151 173 180 175 173 173 169 169 171 168 160 152 146 137 124 123 130 124 96 75 58 25 347 333 335 333 336 342 338
67 101 130 147 156 158 155 151 149 145 139 137 147 170 171 167 167 171 171 169 170 171 173 173 170 166 160 151 142 133 116 104 73 27 329 318 318 317 315 314 314 312 310
81 99 110 114 118 126 130 130 130 132 148 165 164 159 165 175 176 175 177 177 177 177 178 178 175 169 167 165 141 117 95 304 296 298 300 304 307 309 309 309 305 301 299
96 120 118 107 103 113 124 135 154 166 166 156 164 191 188 183 180 181 182 184 185 185 182 183 178 177 168 162 121 301 295 295 301 303 305 309 312 309 303 299 298 299 300
32 77 92 95 140 163 185 173 156 171 186 203 203 195 193 192 191 192 192 191 192 191 190 190 187 188 195 215 248 272 282 289 296 301 302 302 299 296 295 294 294 292 292
292 251 216 204 202 204 206 215 224 226 219 209 205 204 204 203 200 198 196 194 192 188 188 192 200 216 236 253 266 280 292 301 304 302 299 298 297 297 295 294 293 292 290